Preview of NWS' New Version of Forecast
This preview is not operational and should not be used for support decisions.

Regional Weather Roundup (RWR)

Issued by National Weather Service (NWS)

                            
512 
ASUS45 KCYS 212310
RWRWY 

WYOMING REGIONAL WEATHER ROUNDUP
NATIONAL WEATHER SERVICE CHEYENNE WY
500 PM MDT THU JUN 21 2018

NOTE:  "FAIR" INDICATES FEW OR NO CLOUDS BELOW 12,000 FEET
WITH NO SIGNIFICANT WEATHER AND/OR OBSTRUCTIONS TO VISIBILITY.

WYZ001-220000-
YELLOWSTONE NATIONAL PARK
  
CITY           SKY/WX    TMP DP  RH WIND       PRES   REMARKS
LK YELLOWSTONE   N/A     54  38  54 W24G36    30.24R                  
W YELLOWSTONE  NOT AVBL                                               

$$
WYZ002>013-054>058-071-098>099-220000-
NORTHERN WYOMING
  
CITY           SKY/WX    TMP DP  RH WIND       PRES   REMARKS
JACKSON        FAIR      73  31  21 W20G30    30.11S                  
CODY           FAIR      73  51  46 W6        29.97S                  
GREYBULL       FAIR      85  43  22 SE22G28   29.87S                  
WORLAND        FAIR      68  58  70 NE15G22   29.92F                  
SHERIDAN       FAIR      82  54  37 E9        29.91F                  
BUFFALO        FAIR      77  49  37 S14         N/A                   
GILLETTE       FAIR      81  55  40 SE15      29.96F                  
HULETT         FAIR      77  46  33 CALM      30.01F                  
NEWCASTLE      FAIR      73  48  40 SE9G16    30.04F                  

$$
WYZ014>020-022>026-101>103-220000-
CENTRAL WYOMING
  
CITY           SKY/WX    TMP DP  RH WIND       PRES   REMARKS
BIG PINEY      FAIR      72  34  24 NW22G31   30.15R                  
PINEDALE       FAIR      70  34  26 W20G28    30.15R                  
DUBOIS         FAIR      72  28  20 W21G29    30.08F                  
LANDER         FAIR      75  54  47 N17       30.01S                  
RIVERTON       FAIR      77  46  33 N14       29.98F                  
CASPER         FAIR      80  46  30 SE6       30.00F                  
DOUGLAS        FAIR      76  56  49 SE12      30.04F                  

$$
WYZ021-027>030-104>119-220000-
SOUTHERN WYOMING
  
CITY           SKY/WX    TMP DP  RH WIND       PRES   REMARKS
EVANSTON       FAIR      78  33  19 W23G31    30.18F                  
KEMMERER       FAIR      77  19  11 W29G36    30.18S                  
FORT BRIDGER   FAIR      83  20  10 W28G36    30.19F                  
ROCK SPRINGS   FAIR      84  16   8 W29G39    30.09F                  
DIXON          FAIR      85  22  10 W17G30    30.11F                  
RAWLINS        FAIR      78  32  18 SW8       30.13F                  
SARATOGA       FAIR      79  32  18 NW13      30.16F                  
LARAMIE        TSTM      61  46  57 N25G37    30.19R                  
CHEYENNE       FAIR      75  52  44 S12       30.12F                  
TORRINGTON     FAIR      80  53  39 E7G17     30.01F                  
PINE BLUFFS    FAIR      79  48  34 SE8       30.09R                  

$$